Miscellaneous Local Product
Issued by NWS North Platte, NE

Home | Current Version | Previous Version | Graphics & Text | Print | Product List | Glossary On
Versions: 1 2 3 4 5 6 7 8 9 10 11 12 13 14 15 16 17 18 19 20 21 22 23 24 25 26 27 28 29 30 31 32 33 34 35 36 37 38 39 40 41 42 43 44 45 46 47 48 49 50
000
AXUS43 KLBF 230110
MISLBF


WESTERN AND NORTH CENTRAL NEBRASKA HOURLY WEATHER ROUNDUP
NATIONAL WEATHER SERVICE NORTH PLATTE NE
800 PM CDT WED OCT 22 2014

***STATIONS NOT REPORTING VARIABLES SUCH AS SKY/WEATHER OR
PRESSURE ARE PROVIDED BY THE NEBRASKA DEPARTMENT OF
ROADS...RAWS...AND APRS NETWORKS...AND ARE NOT UNDER
NATIONAL WEATHER SERVICE QUALITY CONTROL***

...OBSERVATIONS IN AND NEAR THE EASTERN PANHANDLE OF NEBRASKA...

CITY           SKY/WX    TMP DP  RH WIND       PRES   REMARKS
PINE RIDGE     CLEAR     45  34  65 CALM      30.03R
CHADRON        CLEAR     46  33  60 S7        30.03R
ALLIANCE       PTCLDY    46  31  55 SE5       30.06R
SIDNEY         CLOUDY    50  37  61 E3        30.10R
WHITECLAY        N/A     43  32  64 E6          N/A
RUSHVILLE        N/A     49  24  37 NW5         N/A
CRESCENT LAKE    N/A     56  29  35 CALM        N/A
LISCO            N/A     53  24  32 NE3         N/A
LEWELLEN         N/A     47  31  52 S3          N/A
$$

...OBSERVATIONS IN NORTH CENTRAL NEBRASKA...

CITY           SKY/WX    TMP DP  RH WIND       PRES   REMARKS
VALENTINE      CLEAR     51  40  65 CALM      30.04R
THEDFORD       PTCLDY    55  45  69 CALM      30.06R
AINSWORTH      CLEAR     49  42  76 CALM      30.05R
O`NEILL        PTCLDY    53  52  97 CALM      30.03S
ORD            PTCLDY    54  53  97 NW3       30.02R
BROKEN BOW     CLEAR     51  49  92 N5        30.04R
BROWNLEE         N/A     57  39  51 N5          N/A
SPRINGVIEW       N/A     49  43  80 CALM        N/A
BREWSTER         N/A     52  50  92 CALM        N/A
ROSE             N/A     58  54  85 CALM        N/A
NEWPORT          N/A     45  45  99 S6          N/A
SARGENT          N/A     54  52  92 CALM        N/A
COMSTOCK         N/A     56  56  99 CALM        N/A
CHAMBERS         N/A     49  47  92 CALM        N/A
$$

...OBSERVATIONS IN SOUTHWEST NEBRASKA AND FAR NORTHEAST COLORADO...

CITY           SKY/WX    TMP DP  RH WIND       PRES   REMARKS
WRAY           FAIR      54  35  49 N8        30.08R
HOLYOKE        FAIR      52  36  54 CALM      30.08R
IMPERIAL       CLEAR     59  34  39 NW5       30.06R
OGALLALA       PTCLDY    53  36  53 CALM      30.07R
NORTH PLATTE   CLEAR     54  49  83 CALM      30.04R
MCCOOK         CLEAR     59  50  72 E6        30.03R
LEXINGTON      CLEAR     56  53  89 NE3       30.04R
SUTHERLAND       N/A     53  22  29 CALM        N/A
BRADY            N/A     57  51  80 CALM        N/A
GOTHENBURG       N/A     61  49  65 CALM        N/A
CALLAWAY         N/A     59  52  77 E3          N/A
$$

...SOME WEATHER OBSERVATIONS FROM AROUND THE REGION...

CITY           SKY/WX    TMP DP  RH WIND       PRES   REMARKS
DENVER         MOCLDY    62  38  40 N5        30.12R
LARAMIE        CLEAR     43  23  45 W12       30.19R
CHEYENNE       PTCLDY    52  28  39 SW7       30.15R
SCOTTSBLUFF    CLEAR     55  26  32 VRB6      30.06R
RAPID CITY     CLEAR     47  32  56 NE8       30.02R
PIERRE         CLEAR     59  40  49 S6        29.96R
WINNER         FAIR      57  41  55 S6        30.01R
SIOUX FALLS    CLOUDY    57  55  93 W7        30.00R
OMAHA          LGT RAIN  64  61  90 CALM      30.07R FOG
GRAND ISLAND   MOCLDY    60  58  92 VRB3      30.03R FOG
KANSAS CITY    PTCLDY    63  53  70 SE10      30.10S
WICHITA        LGT RAIN  69  57  65 S9        30.06R
HAYS           CLOUDY    64  54  68 S8        30.04R
LIBERAL        PTCLDY    64  55  72 SE13      30.05R
GOODLAND       CLEAR     56  46  69 SE6       30.07R
$$



USA.gov is the U.S. government's official web portal to all federal, state and local government web resources and services.